Location: Houston
(29.7630°N, 95.3630°W)
Time: 01:24:34
(UTC-05:00)

ISS - All Passes

Search period start: 30 May 2015 00:00
Search period end: 09 June 2015 00:00
Orbit: 399 x 404 km, 51.6° (Epoch: 29 May)

Date Brightness Start Highest point End Pass type
(mag) Time Alt. Az. Time Alt. Az. Time Alt. Az.
30 May - 05:13:15 10° N 05:14:40 12° NE 05:16:10 10° ENE visible
30 May - 06:48:09 10° NW 06:51:19 50° SW 06:54:29 10° SSE daylight
30 May - 21:46:28 10° SW 21:49:42 83° SE 21:52:56 10° NE visible
31 May - 05:54:52 10° NW 05:58:06 62° NE 06:01:20 10° SE visible
31 May - 20:53:36 10° SSW 20:56:30 31° SE 20:59:26 10° ENE visible
31 May - 22:30:49 10° W 22:33:00 16° NW 22:35:07 10° N visible
01 Jun - 05:01:57 10° NNW 05:04:46 27° NE 05:07:37 10° ESE visible
01 Jun - 06:38:47 10° W 06:41:03 17° SW 06:43:13 10° S daylight
01 Jun - 20:01:39 10° SSE 20:03:21 14° SE 20:05:09 10° E daylight
01 Jun - 21:36:37 10° WSW 21:39:33 32° NW 21:42:31 10° NNE visible
02 Jun - 04:09:29 10° N 04:11:18 14° NE 04:13:12 10° ENE visible
02 Jun - 05:44:47 10° WNW 05:47:52 40° SW 05:50:56 10° SSE visible
02 Jun - 20:43:01 10° SW 20:46:14 78° NW 20:49:28 10° NE visible
03 Jun - 04:51:23 10° NW 04:54:38 78° NE 04:57:53 10° SE visible
03 Jun - 19:49:58 10° SSW 19:53:00 39° SE 19:56:03 10° ENE daylight
03 Jun - 21:27:42 10° WNW 21:29:34 14° NW 21:31:22 10° N visible
04 Jun - 03:58:20 10° NNW 04:01:18 32° NE 04:04:17 10° ESE visible
04 Jun - 05:35:40 10° W 05:37:31 14° SW 05:39:16 10° SSW visible
04 Jun - 18:57:41 10° S 18:59:48 17° SE 19:02:01 10° E daylight
04 Jun - 20:33:15 10° WSW 20:36:04 27° NW 20:38:53 10° NNE daylight
05 Jun - 03:05:42 10° N 03:07:50 16° NE 03:10:02 10° E night (unlit)
05 Jun - 04:41:22 10° WNW 04:44:19 32° SW 04:47:15 10° SSE night (unlit)
05 Jun - 19:39:30 10° SW 19:42:41 62° NW 19:45:54 10° NE daylight
06 Jun - 03:47:49 10° NW 03:51:04 84° SW 03:54:19 10° SE night (unlit)
06 Jun - 18:46:17 10° SSW 18:49:24 49° SE 18:52:33 10° NE daylight
06 Jun - 20:24:34 10° WNW 20:26:03 12° NW 20:27:26 10° N daylight
07 Jun - 02:54:39 10° NNW 02:57:44 38° NE 03:00:48 10° ESE night (unlit)
07 Jun - 04:32:39 10° WSW 04:33:54 11° SW 04:34:58 10° SW night (unlit)
07 Jun - 17:53:43 10° S 17:56:10 20° SE 17:58:40 10° ENE daylight
07 Jun - 19:29:50 10° W 19:32:30 23° NW 19:35:08 10° NNE daylight
08 Jun - 02:01:52 10° N 02:04:15 19° NE 02:06:41 10° E night (unlit)
08 Jun - 03:37:52 10° WNW 03:40:40 26° SW 03:43:26 10° S night (unlit)
08 Jun - 18:35:55 10° WSW 18:39:03 50° NW 18:42:12 10° NNE daylight
